Location: Aix-en-Ergny
(50.5839°N, 1.9996°E)
Time: 01:37:25
(UTC+00:00)

Cosmos 1295 Rocket - Pass Details

Date: 23 October 2019
Orbit: 943 x 994 km, 82.9° (Epoch: 17 November)

Event Time Altitude Azimuth Distance (km) Brightness Sun altitude
Rises 04:55:25 0° 199° (SSW) 3,637 7.3 -15.2°
Reaches altitude 10° 04:57:57 10° 203° (SSW) 2,688 6.6 -14.8°
Maximum altitude 05:04:02 62° 283° (WNW) 1,068 4.4 -13.8°
Drops below altitude 10° 05:10:06 10° 5° (N) 2,680 6.8 -12.9°
Sets 05:12:38 0° 9° (N) 3,626 7.6 -12.5°
